Tracking 28790 objects as of 19-Apr-2024
HD Live streaming from Space Station
objects crossing your sky now

CZ-6A DEB

Track CZ-6A DEB now!
10-day predictions


NORAD ID: 54521
Int'l Code: 2022-151JZ
Perigee: 811.9 km
Apogee: 1,019.4 km
Inclination: 98.8 °
Period: 103.2 minutes
Semi major axis: 7286 km
RCS: Unknown
Launch date: November 11, 2022
Source: People's Republic of China (PRC)
Launch site: Taiyaun Space Center, China (TSC)

Note: This is SATELLITE DEBRIS
Your satellite tracking list
Your tracking list is empty




NASA's NSSDC Master Catalog

Two Line Element Set (TLE):
1 54521U 22151JZ  24109.94971209  .00001105  00000-0  77120-3 0  9992
2 54521  98.7979 100.2202 0142336 107.9892 253.6842 13.95762764 72874
Source of the keplerian elements: AFSPC